Galax, VA

10:38 AM EDT on April 29, 2017 (GMT -0400)
Twin County

Weather History for KHLX - September, 2013

Change the Weather History Date:

Friday, September 27, 2013

  Actual Average (KBLF) Record (KBLF)
Temperature  
Mean Temperature 62 °F -  
Max Temperature 73 °F 68 °F 83 °F (2007)
Min Temperature 50 °F 51 °F 37 °F (1991)
Degree Days  
Heating Degree Days 4    
Growing Degree Days 12 (Base 50)    
Moisture  
Dew Point 55 °F    
Average Humidity 81    
Maximum Humidity 100    
Minimum Humidity 50    
Precipitation  
Precipitation 0.00 in - - ()
Sea Level Pressure  
Sea Level Pressure 30.21 in    
Wind  
Wind Speed 1 mph (ENE)    
Max Wind Speed 7 mph    
Max Gust Speed -    
Visibility 8 miles    
Events Fog    
Averages and records for this station are not official NWS values.
T = Trace of Precipitation, MM = Missing Value Source: NWS Daily Summary

Daily Weather History Graph

Daily Weather History Graph

Search for Another Location

Airport or City:

Trip Planner

Search our weather history database for the weather conditions in past years. The results will help you decide how hot, cold, wet, or windy it might be!

Date:

Astronomy

Sep. 27, 2013 Rise Set
Actual Time 7:15 AM EDT 7:12 PM EDT
Civil Twilight 6:49 AM EDT 7:38 PM EDT
Nautical Twilight 6:19 AM EDT 8:08 PM EDT
Astronomical Twilight 5:49 AM EDT 8:38 PM EDT
Moon 12:18 AM EDT (9/27) 2:41 PM EDT (9/27)
Length of Visible Light 12h 48m
Length of Day
11h 56m
Last Quarter, 45% of the Moon is Illuminated
Sep 27
Last Quarter
Oct 4
New
Oct 11
First Quarter
Oct 18
Full
Oct 26
Last Quarter

Hourly Weather History & Observations

Time (EDT) Temp. Dew Point Humidity Pressure Visibility Wind Dir Wind Speed Gust Speed Precip Events Conditions
12:15 AM 59.0 °F 57.2 °F 94% 30.15 in 10.0 mi ESE 3.5 mph - N/A   Scattered Clouds
12:35 AM 59.0 °F 57.2 °F 94% 30.15 in 10.0 mi Calm Calm - N/A   Scattered Clouds
12:55 AM 59.0 °F 57.2 °F 94% 30.16 in 10.0 mi Calm Calm - N/A   Scattered Clouds
1:15 AM 60.8 °F 55.4 °F 82% 30.16 in 10.0 mi Calm Calm - N/A   Clear
1:35 AM 57.2 °F 55.4 °F 94% 30.16 in 1.8 mi Calm Calm - N/A   Mist
1:55 AM 57.2 °F 55.4 °F 94% 30.17 in 10.0 mi Calm Calm - N/A   Scattered Clouds
2:15 AM 57.2 °F 55.4 °F 94% 30.17 in 10.0 mi Calm Calm - N/A   Mostly Cloudy
2:35 AM 57.2 °F 55.4 °F 94% 30.17 in 10.0 mi Calm Calm - N/A   Mostly Cloudy
2:55 AM 57.2 °F 55.4 °F 94% 30.16 in 7.0 mi Calm Calm - N/A   Mostly Cloudy
3:15 AM 57.2 °F 55.4 °F 94% 30.15 in 10.0 mi Calm Calm - N/A   Clear
3:35 AM 57.2 °F 57.2 °F 100% 30.16 in 5.0 mi Calm Calm - N/A   Clear
3:55 AM 55.4 °F 53.6 °F 94% 30.16 in 0.2 mi Calm Calm - N/A Fog Fog
4:15 AM 55.4 °F 53.6 °F 94% 30.16 in 0.2 mi Calm Calm - N/A Fog Fog
4:35 AM 55.4 °F 55.4 °F 100% 30.16 in 0.8 mi Calm Calm - N/A   Mostly Cloudy
4:55 AM 55.4 °F 53.6 °F 94% 30.17 in 7.0 mi Calm Calm - N/A   Scattered Clouds
5:15 AM 53.6 °F 53.6 °F 100% 30.17 in 0.5 mi Calm Calm - N/A Fog Fog
5:35 AM 53.6 °F 51.8 °F 94% 30.18 in 0.2 mi Calm Calm - N/A Fog Fog
5:55 AM 51.8 °F 51.8 °F 100% 30.18 in 0.2 mi Calm Calm - N/A Fog Fog
6:15 AM 51.8 °F 51.8 °F 100% 30.19 in 0.5 mi Calm Calm - N/A Fog Fog
6:35 AM 51.8 °F 51.8 °F 100% 30.19 in 3.0 mi Calm Calm - N/A   Scattered Clouds
6:55 AM 53.6 °F 51.8 °F 94% 30.20 in 1.0 mi Calm Calm - N/A   Mist
7:15 AM 51.8 °F 50.0 °F 94% 30.20 in 0.2 mi Calm Calm - N/A Fog Fog
7:35 AM 50.0 °F 48.2 °F 94% 30.21 in 0.2 mi Calm Calm - N/A Fog Fog
7:55 AM 50.0 °F 48.2 °F 94% 30.22 in 0.2 mi Calm Calm - N/A Fog Fog
8:15 AM 50.0 °F 48.2 °F 94% 30.22 in 0.5 mi Calm Calm - N/A Fog Fog
8:35 AM 51.8 °F 50.0 °F 94% 30.23 in 0.2 mi Calm Calm - N/A Fog Fog
8:55 AM 51.8 °F 51.8 °F 100% 30.23 in 5.0 mi Calm Calm - N/A   Scattered Clouds
9:15 AM 53.6 °F 53.6 °F 100% 30.24 in 1.8 mi Calm Calm - N/A   Mist
9:35 AM 55.4 °F 55.4 °F 100% 30.24 in 0.2 mi Calm Calm - N/A Fog Fog
9:55 AM 57.2 °F 55.4 °F 94% 30.24 in 10.0 mi Calm Calm - N/A   Scattered Clouds
10:15 AM 59.0 °F 57.2 °F 94% 30.25 in 10.0 mi Calm Calm - N/A   Clear
10:35 AM 60.8 °F 59.0 °F 94% 30.25 in 10.0 mi Calm Calm - N/A   Clear
10:55 AM 64.4 °F 59.0 °F 83% 30.25 in 10.0 mi Calm Calm - N/A   Scattered Clouds
11:15 AM 66.2 °F 55.4 °F 68% 30.25 in 10.0 mi ENE 3.5 mph - N/A   Clear
11:35 AM 66.2 °F 53.6 °F 64% 30.25 in 10.0 mi ENE 3.5 mph - N/A   Clear
11:55 AM 68.0 °F 53.6 °F 60% 30.25 in 10.0 mi NE 3.5 mph - N/A   Clear
12:15 PM 69.8 °F 53.6 °F 56% 30.25 in 10.0 mi Calm Calm - N/A   Clear
12:35 PM 69.8 °F 53.6 °F 56% 30.24 in 10.0 mi Calm Calm - N/A   Clear
12:55 PM 69.8 °F 55.4 °F 60% 30.24 in 10.0 mi East 5.8 mph - N/A   Clear
1:15 PM 69.8 °F 53.6 °F 56% 30.23 in 10.0 mi North 4.6 mph - N/A   Scattered Clouds
1:35 PM 71.6 °F 53.6 °F 53% 30.23 in 10.0 mi NNW 3.5 mph - N/A   Scattered Clouds
1:55 PM 71.6 °F 53.6 °F 53% 30.22 in 10.0 mi East 4.6 mph - N/A   Scattered Clouds
2:15 PM 71.6 °F 53.6 °F 53% 30.22 in 10.0 mi Calm Calm - N/A   Scattered Clouds
2:35 PM 71.6 °F 53.6 °F 53% 30.21 in 10.0 mi East 4.6 mph - N/A   Scattered Clouds
2:55 PM 71.6 °F 53.6 °F 53% 30.21 in 10.0 mi North 4.6 mph - N/A   Clear
3:15 PM 73.4 °F 53.6 °F 50% 30.21 in 10.0 mi North 3.5 mph - N/A   Scattered Clouds
3:35 PM 73.4 °F 55.4 °F 53% 30.20 in 10.0 mi NNE 3.5 mph - N/A   Scattered Clouds
3:55 PM 71.6 °F 53.6 °F 53% 30.20 in 10.0 mi NNW 4.6 mph - N/A   Scattered Clouds
4:15 PM 73.4 °F 55.4 °F 53% 30.20 in 10.0 mi North 3.5 mph - N/A   Scattered Clouds
4:35 PM 69.8 °F 55.4 °F 60% 30.20 in 10.0 mi Calm Calm - N/A   Scattered Clouds
4:55 PM 71.6 °F 53.6 °F 53% 30.20 in 10.0 mi Calm Calm - N/A   Clear
5:15 PM 71.6 °F 55.4 °F 57% 30.20 in 10.0 mi ENE 6.9 mph - N/A   Scattered Clouds
5:35 PM 71.6 °F 55.4 °F 57% 30.21 in 10.0 mi Calm Calm - N/A   Clear
5:55 PM 69.8 °F 57.2 °F 64% 30.21 in 10.0 mi SE 4.6 mph - N/A   Scattered Clouds
6:15 PM 68.0 °F 57.2 °F 68% 30.21 in 10.0 mi ESE 4.6 mph - N/A   Clear
6:35 PM 66.2 °F 57.2 °F 73% 30.22 in 10.0 mi SE 3.5 mph - N/A   Clear
6:55 PM 64.4 °F 57.2 °F 77% 30.22 in 10.0 mi ESE 4.6 mph - N/A   Clear
7:15 PM 62.6 °F 57.2 °F 82% 30.22 in 10.0 mi ESE 3.5 mph - N/A   Clear
7:35 PM 62.6 °F 57.2 °F 82% 30.22 in 10.0 mi Calm Calm - N/A   Clear
7:55 PM 60.8 °F 57.2 °F 88% 30.23 in 10.0 mi Calm Calm - N/A   Clear
8:15 PM 60.8 °F 55.4 °F 82% 30.23 in 10.0 mi Calm Calm - N/A   Clear
8:35 PM 60.8 °F 55.4 °F 82% 30.24 in 10.0 mi ESE 3.5 mph - N/A   Clear
8:55 PM 60.8 °F 55.4 °F 82% 30.24 in 10.0 mi Calm Calm - N/A   Clear
9:15 PM 60.8 °F 55.4 °F 82% 30.24 in 10.0 mi Calm Calm - N/A   Clear
9:35 PM 60.8 °F 55.4 °F 82% 30.25 in 10.0 mi Calm Calm - N/A   Clear
9:55 PM 60.8 °F 55.4 °F 82% 30.26 in 10.0 mi Calm Calm - N/A   Clear
10:15 PM 60.8 °F 55.4 °F 82% 30.27 in 10.0 mi Calm Calm - N/A   Scattered Clouds
10:35 PM 60.8 °F 55.4 °F 82% 30.28 in 10.0 mi Calm Calm - N/A   Mostly Cloudy
10:55 PM 59.0 °F 55.4 °F 88% 30.29 in 10.0 mi Calm Calm - N/A   Mostly Cloudy
11:15 PM 59.0 °F 55.4 °F 88% 30.29 in 10.0 mi Calm Calm - N/A   Mostly Cloudy
11:35 PM 59.0 °F 55.4 °F 88% 30.28 in 10.0 mi Calm Calm - N/A   Mostly Cloudy
11:55 PM 57.2 °F 55.4 °F 94% 30.28 in 10.0 mi Calm Calm - N/A   Mostly Cloudy